Avoca, PA

2:01 PM EDT on June 26, 2017 (GMT -0400)
Wilkes-Barre-Scranton International

Weather History for KAVP - December, 2013

Change the Weather History Date:

Sunday, December 15, 2013

  Actual Average Record
Temperature  
Mean Temperature 26 °F 31 °F  
Max Temperature 34 °F 37 °F 60 °F (1971)
Min Temperature 18 °F 24 °F 2 °F (1904)
Degree Days  
Heating Degree Days 39 34  
Month to date heating degree days 503 478  
Since 1 July heating degree days 1779 1791  
Cooling Degree Days 0 0  
Month to date cooling degree days 0 0  
Year to date cooling degree days 795 580  
Moisture  
Dew Point 21 °F    
Average Humidity 79    
Maximum Humidity 96    
Minimum Humidity 61    
Precipitation  
Precipitation 0.10 in 0.08 in 1.86 in (1901)
Month to date precipitation 1.86 1.42  
Year to date precipitation 26.09 37.00  
Sea Level Pressure  
Sea Level Pressure 29.68 in    
Wind  
Wind Speed 10 mph (WSW)    
Max Wind Speed 28 mph    
Max Gust Speed 32 mph    
Visibility 7 miles    
Events Rain , Snow    
T = Trace of Precipitation, MM = Missing Value Source: NWS Daily Summary

Daily Weather History Graph

Daily Weather History Graph

Search for Another Location

Airport or City:

Trip Planner

Search our weather history database for the weather conditions in past years. The results will help you decide how hot, cold, wet, or windy it might be!

Date:

Astronomy

Dec. 15, 2013 Rise Set
Actual Time 7:21 AM EST 4:34 PM EST
Civil Twilight 6:50 AM EST 5:05 PM EST
Nautical Twilight 6:15 AM EST 5:40 PM EST
Astronomical Twilight 5:42 AM EST 6:14 PM EST
Moon 3:37 PM EST (12/15) 5:35 AM EST (12/15)
Length of Visible Light 10h 15m
Length of Day
9h 12m
Waxing Gibbous, 97% of the Moon is Illuminated
Dec 15
Waxing Gibbous
Dec 17
Full
Dec 25
Last Quarter
Jan 1
New
Jan 7
First Quarter

Hourly Weather History & Observations

Time (EST) Temp. Windchill Dew Point Humidity Pressure Visibility Wind Dir Wind Speed Gust Speed Precip Events Conditions
12:08 AM 17.6 °F 6.4 °F 15.8 °F 93% 29.78 in 3.0 mi NE 9.2 mph - 0.01 in   Overcast
12:29 AM 19.4 °F 14.3 °F 15.8 °F 86% 29.75 in 2.5 mi Variable 3.5 mph - 0.07 in   Overcast
12:54 AM 19.9 °F 11.1 °F 16.0 °F 85% 29.75 in 3.0 mi Variable 6.9 mph - 0.08 in Snow Light Snow
1:54 AM 19.9 °F 11.1 °F 15.1 °F 81% 29.69 in 4.0 mi Variable 6.9 mph - 0.02 in   Overcast
2:04 AM 19.4 °F 11.5 °F 15.8 °F 86% 29.65 in 4.0 mi Variable 5.8 mph - 0.00 in Rain Light Freezing Rain
2:30 AM 21.2 °F 11.7 °F 17.6 °F 86% 29.62 in 5.0 mi NE 8.1 mph 25.3 mph 0.00 in   Haze
2:51 AM 21.2 °F 7.3 °F 17.6 °F 86% 29.62 in 10.0 mi NE 16.1 mph 25.3 mph 0.00 in   Overcast
2:54 AM 21.9 °F 10.4 °F 17.1 °F 82% 29.65 in 10.0 mi NE 11.5 mph 25.3 mph 0.00 in   Overcast
3:54 AM 24.1 °F 18.2 °F 19.0 °F 81% 29.63 in 10.0 mi Variable 4.6 mph - N/A   Overcast
4:54 AM 25.0 °F 19.3 °F 21.0 °F 85% 29.60 in 10.0 mi Variable 4.6 mph - N/A   Overcast
5:45 AM 24.8 °F 16.1 °F 21.2 °F 86% 29.58 in 10.0 mi SSW 8.1 mph - N/A   Overcast
5:54 AM 23.0 °F 15.8 °F 19.9 °F 88% 29.61 in 7.0 mi SW 5.8 mph - N/A   Overcast
6:23 AM 23.0 °F 17.0 °F 21.2 °F 93% 29.58 in 3.0 mi WSW 4.6 mph - N/A   Overcast
6:36 AM 21.2 °F 13.6 °F 21.2 °F 100% 29.58 in 2.5 mi SW 5.8 mph - 0.00 in   Overcast
6:44 AM 23.0 °F 17.0 °F 21.2 °F 93% 29.59 in 3.0 mi SSW 4.6 mph - 0.00 in Snow Light Snow
6:54 AM 23.0 °F 18.4 °F 21.9 °F 96% 29.62 in 3.0 mi SSW 3.5 mph - 0.00 in   Overcast
7:04 AM 23.0 °F - 21.2 °F 93% 29.59 in 2.0 mi Calm Calm - 0.00 in Snow Light Snow
7:11 AM 23.0 °F - 21.2 °F 93% 29.59 in 2.0 mi Calm Calm - 0.00 in Snow Light Snow
7:19 AM 23.0 °F - 21.2 °F 93% 29.59 in 1.5 mi Calm Calm - 0.00 in Snow Light Snow
7:28 AM 23.0 °F - 21.2 °F 93% 29.59 in 3.0 mi Calm Calm - 0.00 in Snow Light Snow
7:43 AM 24.8 °F - 21.2 °F 86% 29.59 in 5.0 mi Calm Calm - 0.00 in Snow Light Snow
7:54 AM 24.1 °F 18.2 °F 21.9 °F 91% 29.62 in 5.0 mi WSW 4.6 mph - 0.00 in Snow Light Snow
8:11 AM 24.8 °F 17.9 °F 21.2 °F 86% 29.59 in 7.0 mi WSW 5.8 mph - N/A   Overcast
8:54 AM 25.0 °F 17.1 °F 23.0 °F 92% 29.63 in 9.0 mi SW 6.9 mph - N/A   Overcast
9:54 AM 27.0 °F 18.0 °F 24.1 °F 89% 29.65 in 9.0 mi SSW 9.2 mph - N/A   Overcast
10:19 AM 26.6 °F 18.2 °F 24.8 °F 93% 29.62 in 9.0 mi SSW 8.1 mph - N/A   Overcast
10:54 AM 28.0 °F 19.3 °F 24.1 °F 85% 29.66 in 8.0 mi SSW 9.2 mph - N/A   Overcast
11:54 AM 28.9 °F 21.9 °F 25.0 °F 85% 29.67 in 7.0 mi WSW 6.9 mph - N/A   Overcast
12:11 PM 30.2 °F 23.4 °F 26.6 °F 86% 29.63 in 7.0 mi SSW 6.9 mph - N/A   Overcast
12:32 PM 30.2 °F 23.4 °F 26.6 °F 86% 29.64 in 7.0 mi West 6.9 mph - N/A   Overcast
12:54 PM 30.9 °F 23.5 °F 27.0 °F 85% 29.67 in 8.0 mi WSW 8.1 mph - 0.00 in   Overcast
1:54 PM 30.9 °F 21.7 °F 27.0 °F 85% 29.68 in 7.0 mi West 11.5 mph 17.3 mph N/A   Overcast
2:07 PM 30.2 °F 20.2 °F 26.6 °F 86% 29.65 in 5.0 mi West 12.7 mph - 0.00 in Snow Light Snow
2:54 PM 32.0 °F 27.5 °F 26.1 °F 79% 29.68 in 9.0 mi West 4.6 mph - 0.01 in   Overcast
3:09 PM 32.0 °F 28.7 °F 26.6 °F 80% 29.66 in 10.0 mi West 3.5 mph - N/A   Overcast
3:54 PM 33.1 °F 22.2 °F 21.9 °F 64% 29.71 in 10.0 mi WNW 17.3 mph 28.8 mph N/A   Overcast
4:54 PM 30.9 °F 19.8 °F 23.0 °F 72% 29.74 in 10.0 mi WSW 16.1 mph - N/A   Mostly Cloudy
5:54 PM 30.0 °F 18.7 °F 23.0 °F 75% 29.76 in 10.0 mi WSW 16.1 mph 20.7 mph N/A   Overcast
6:54 PM 28.9 °F 18.2 °F 21.0 °F 72% 29.78 in 10.0 mi WSW 13.8 mph 23.0 mph N/A   Overcast
7:54 PM 28.0 °F 17.5 °F 19.0 °F 69% 29.80 in 10.0 mi WSW 12.7 mph 17.3 mph N/A   Overcast
8:54 PM 28.0 °F 17.5 °F 18.0 °F 66% 29.81 in 10.0 mi WSW 12.7 mph - N/A   Overcast
9:16 PM 28.4 °F 19.7 °F 19.4 °F 69% 29.78 in 10.0 mi WSW 9.2 mph - N/A   Overcast
9:54 PM 28.0 °F 18.1 °F 19.0 °F 69% 29.81 in 10.0 mi WSW 11.5 mph - N/A   Overcast
10:24 PM 28.4 °F 19.1 °F 19.4 °F 69% 29.78 in 10.0 mi WSW 10.4 mph 19.6 mph N/A   Overcast
10:54 PM 28.0 °F 18.1 °F 19.9 °F 72% 29.81 in 10.0 mi WSW 11.5 mph - N/A   Overcast
11:54 PM 28.0 °F 16.1 °F 16.0 °F 61% 29.82 in 10.0 mi West 16.1 mph 26.5 mph N/A   Overcast